Time,TemperatureF,DewpointF,PressureIn,WindDirection,WindDirectionDegrees,WindSpeedMPH,WindSpeedGustMPH,Humidity,HourlyPrecipIn,Conditions,Clouds,dailyrainin,SoftwareType,DateUTC
2013-03-06 00:02:00,21.0,20.0,30.38,NW,320,7.0,8.0,95,0.00,,,0.00,,2013-03-06 06:02:00,
2013-03-06 00:11:00,21.0,20.0,30.38,NW,320,7.0,8.0,95,0.00,,,0.00,,2013-03-06 06:11:00,
2013-03-06 00:22:00,21.0,20.0,30.39,NW,317,6.0,8.0,95,0.00,,,0.00,,2013-03-06 06:22:00,
2013-03-06 00:31:00,21.0,20.0,30.39,NNW,333,8.0,12.0,95,0.00,,,0.00,,2013-03-06 06:31:00,
2013-03-06 00:42:00,21.0,20.0,30.39,NNW,333,8.0,12.0,95,0.00,,,0.00,,2013-03-06 06:42:00,
2013-03-06 00:52:00,21.0,20.0,30.40,NNW,334,9.0,13.0,95,0.00,,,0.00,,2013-03-06 06:52:00,
2013-03-06 01:01:00,21.0,20.0,30.40,NW,321,10.0,14.0,95,0.00,,,0.00,,2013-03-06 07:01:00,
2013-03-06 01:11:00,21.0,20.0,30.40,NW,321,10.0,14.0,95,0.00,,,0.00,,2013-03-06 07:11:00,
2013-03-06 01:22:00,21.0,20.0,30.40,NW,325,7.0,10.0,95,0.00,,,0.00,,2013-03-06 07:22:00,
2013-03-06 01:31:00,21.0,20.0,30.40,NW,310,7.0,10.0,95,0.00,,,0.00,,2013-03-06 07:31:00,
2013-03-06 01:42:00,21.0,20.0,30.40,NW,310,7.0,10.0,95,0.00,,,0.00,,2013-03-06 07:42:00,
2013-03-06 01:52:00,21.0,20.0,30.41,NW,324,8.0,10.0,95,0.00,,,0.00,,2013-03-06 07:52:00,
2013-03-06 02:01:00,21.0,20.0,30.40,NNW,336,7.0,10.0,95,0.00,,,0.00,,2013-03-06 08:01:00,
2013-03-06 02:11:00,21.0,20.0,30.40,NNW,336,7.0,10.0,95,0.00,,,0.00,,2013-03-06 08:11:00,
2013-03-06 02:21:00,21.0,20.0,30.40,NNW,332,1.0,8.0,96,0.00,,,0.00,,2013-03-06 08:21:00,
2013-03-06 02:31:00,21.0,20.0,30.41,NW,322,7.0,9.0,96,0.00,,,0.00,,2013-03-06 08:31:00,
2013-03-06 02:42:00,21.0,20.0,30.41,NW,322,7.0,9.0,96,0.00,,,0.00,,2013-03-06 08:42:00,
2013-03-06 02:52:00,21.0,20.0,30.41,North,352,6.0,8.0,96,0.00,,,0.00,,2013-03-06 08:52:00,
2013-03-06 03:01:00,20.0,19.0,30.41,NNW,333,8.0,12.0,96,0.00,,,0.00,,2013-03-06 09:01:00,
2013-03-06 03:12:00,20.0,19.0,30.41,NNW,333,8.0,12.0,96,0.00,,,0.00,,2013-03-06 09:12:00,
2013-03-06 03:21:00,20.0,19.0,30.40,NNW,344,7.0,9.0,96,0.00,,,0.00,,2013-03-06 09:21:00,
2013-03-06 03:31:00,20.0,19.0,30.40,NNW,345,7.0,9.0,96,0.00,,,0.00,,2013-03-06 09:31:00,
2013-03-06 03:42:00,20.0,19.0,30.40,NNW,345,7.0,9.0,96,0.00,,,0.00,,2013-03-06 09:42:00,
2013-03-06 03:52:00,20.0,19.0,30.40,NNW,333,5.0,8.0,96,0.00,,,0.00,,2013-03-06 09:52:00,
2013-03-06 04:01:00,20.0,19.0,30.40,NNW,338,5.0,6.0,96,0.00,,,0.00,,2013-03-06 10:01:00,
2013-03-06 04:11:00,20.0,19.0,30.40,NNW,338,5.0,6.0,96,0.00,,,0.00,,2013-03-06 10:11:00,
2013-03-06 04:21:00,20.0,19.0,30.40,North,0,3.0,7.0,96,0.00,,,0.00,,2013-03-06 10:21:00,
2013-03-06 04:31:00,20.0,19.0,30.40,North,350,6.0,8.0,97,0.00,,,0.00,,2013-03-06 10:31:00,
2013-03-06 04:42:00,20.0,19.0,30.40,North,350,6.0,8.0,97,0.00,,,0.00,,2013-03-06 10:42:00,
2013-03-06 04:52:00,20.0,19.0,30.40,NNW,327,5.0,8.0,97,0.00,,,0.00,,2013-03-06 10:52:00,
2013-03-06 05:02:00,20.0,19.0,30.39,NW,325,1.0,0.0,97,0.00,,,0.00,,2013-03-06 11:02:00,
2013-03-06 05:11:00,20.0,19.0,30.39,NW,325,1.0,0.0,97,0.00,,,0.00,,2013-03-06 11:11:00,
2013-03-06 05:22:00,20.0,19.0,30.40,North,4,0.0,0.0,97,0.00,,,0.00,,2013-03-06 11:22:00,
2013-03-06 05:32:00,19.0,18.0,30.41,North,6,5.0,6.0,97,0.00,,,0.00,,2013-03-06 11:32:00,
2013-03-06 05:42:00,19.0,18.0,30.41,North,6,5.0,6.0,97,0.00,,,0.00,,2013-03-06 11:42:00,
2013-03-06 05:52:00,19.0,18.0,30.41,NNE,25,0.0,0.0,97,0.00,,,0.00,,2013-03-06 11:52:00,
2013-03-06 06:02:00,20.0,20.0,30.42,NNE,25,0.0,0.0,98,0.00,,,0.00,,2013-03-06 12:02:00,
2013-03-06 06:11:00,20.0,20.0,30.42,NNE,25,0.0,0.0,98,0.00,,,0.00,,2013-03-06 12:11:00,
2013-03-06 06:21:00,20.0,20.0,30.42,NW,305,0.0,0.0,98,0.00,,,0.00,,2013-03-06 12:21:00,
2013-03-06 06:32:00,19.0,19.0,30.42,NNW,337,0.0,0.0,98,0.00,,,0.00,,2013-03-06 12:32:00,
2013-03-06 06:42:00,19.0,19.0,30.42,NNW,337,0.0,0.0,98,0.00,,,0.00,,2013-03-06 12:42:00,
2013-03-06 06:52:00,20.0,20.0,30.41,North,3,0.0,0.0,99,0.00,,,0.00,,2013-03-06 12:52:00,
2013-03-06 07:02:00,20.0,20.0,30.41,NW,316,1.0,1.0,99,0.00,,,0.00,,2013-03-06 13:02:00,
2013-03-06 07:11:00,20.0,20.0,30.41,NW,316,1.0,1.0,99,0.00,,,0.00,,2013-03-06 13:11:00,
2013-03-06 07:22:00,19.0,19.0,30.41,NNW,339,3.0,5.0,98,0.00,,,0.00,,2013-03-06 13:22:00,
2013-03-06 07:32:00,19.0,19.0,30.42,North,3,0.0,0.0,99,0.00,,,0.00,,2013-03-06 13:32:00,
2013-03-06 07:42:00,19.0,19.0,30.42,North,3,0.0,0.0,99,0.00,,,0.00,,2013-03-06 13:42:00,
2013-03-06 07:52:00,19.0,19.0,30.42,North,3,0.0,0.0,99,0.00,,,0.00,,2013-03-06 13:52:00,
2013-03-06 08:01:00,20.0,20.0,30.42,WNW,291,0.0,0.0,99,0.00,,,0.00,,2013-03-06 14:01:00,
2013-03-06 08:11:00,20.0,20.0,30.42,WNW,291,0.0,0.0,99,0.00,,,0.00,,2013-03-06 14:11:00,
2013-03-06 08:22:00,19.0,19.0,30.42,NNW,329,0.0,0.0,99,0.00,,,0.00,,2013-03-06 14:22:00,
2013-03-06 08:32:00,19.0,19.0,30.42,NNW,336,0.0,0.0,99,0.00,,,0.00,,2013-03-06 14:32:00,
2013-03-06 08:42:00,19.0,19.0,30.42,NNW,336,0.0,0.0,99,0.00,,,0.00,,2013-03-06 14:42:00,
2013-03-06 08:52:00,19.0,19.0,30.42,NNW,336,0.0,0.0,99,0.00,,,0.00,,2013-03-06 14:52:00,
2013-03-06 09:02:00,19.0,19.0,30.42,NNW,336,0.0,0.0,99,0.00,,,0.00,,2013-03-06 15:02:00,
2013-03-06 09:11:00,19.0,19.0,30.42,NNW,336,0.0,0.0,99,0.00,,,0.00,,2013-03-06 15:11:00,
2013-03-06 09:21:00,19.0,19.0,30.42,ENE,62,0.0,0.0,99,0.00,,,0.00,,2013-03-06 15:21:00,
2013-03-06 09:32:00,19.0,19.0,30.42,ENE,62,0.0,0.0,99,0.00,,,0.00,,2013-03-06 15:32:00,
2013-03-06 09:42:00,19.0,19.0,30.42,ENE,62,0.0,0.0,99,0.00,,,0.00,,2013-03-06 15:42:00,
2013-03-06 09:52:00,20.0,20.0,30.42,ENE,62,0.0,0.0,98,0.00,,,0.00,,2013-03-06 15:52:00,
2013-03-06 10:01:00,21.0,20.0,30.42,ENE,64,0.0,5.0,97,0.00,,,0.00,,2013-03-06 16:01:00,
2013-03-06 10:11:00,21.0,20.0,30.42,ENE,64,0.0,5.0,97,0.00,,,0.00,,2013-03-06 16:11:00,
2013-03-06 10:21:00,20.0,19.0,30.42,ESE,112,0.0,0.0,97,0.00,,,0.00,,2013-03-06 16:21:00,
2013-03-06 10:32:00,20.0,19.0,30.42,SE,136,0.0,0.0,97,0.00,,,0.00,,2013-03-06 16:32:00,
2013-03-06 10:42:00,20.0,19.0,30.42,SE,136,0.0,0.0,97,0.00,,,0.00,,2013-03-06 16:42:00,
2013-03-06 10:52:00,21.0,20.0,30.41,East,83,0.0,0.0,97,0.00,,,0.00,,2013-03-06 16:52:00,
2013-03-06 11:01:00,22.0,21.0,30.42,NW,307,0.0,6.0,96,0.00,,,0.00,,2013-03-06 17:01:00,
2013-03-06 11:11:00,22.0,21.0,30.42,NW,307,0.0,6.0,96,0.00,,,0.00,,2013-03-06 17:11:00,
2013-03-06 11:21:00,23.0,22.0,30.41,SW,234,0.0,0.0,95,0.00,,,0.00,,2013-03-06 17:21:00,
2013-03-06 11:32:00,23.0,21.0,30.41,North,0,0.0,0.0,93,0.00,,,0.00,,2013-03-06 17:32:00,
2013-03-06 11:41:00,23.0,21.0,30.41,North,0,0.0,0.0,93,0.00,,,0.00,,2013-03-06 17:41:00,
2013-03-06 11:52:00,24.0,21.0,30.41,East,99,3.0,6.0,88,0.00,,,0.00,,2013-03-06 17:52:00,
2013-03-06 12:02:00,24.0,22.0,30.40,ESE,116,6.0,7.0,91,0.00,,,0.00,,2013-03-06 18:02:00,
2013-03-06 12:28:00,25.0,23.0,30.40,SE,133,0.0,0.0,91,0.00,,,0.00,,2013-03-06 18:28:00,
2013-03-06 12:42:00,27.0,24.0,30.40,ENE,65,0.0,0.0,88,0.00,,,0.00,,2013-03-06 18:42:00,
2013-03-06 12:52:00,27.0,23.0,30.39,ESE,119,0.0,0.0,84,0.00,,,0.00,,2013-03-06 18:52:00,
2013-03-06 13:02:00,28.0,24.0,30.38,SE,134,0.0,0.0,83,0.00,,,0.00,,2013-03-06 19:02:00,
2013-03-06 13:11:00,28.0,24.0,30.38,SE,134,0.0,0.0,83,0.00,,,0.00,,2013-03-06 19:11:00,
2013-03-06 13:21:00,29.0,23.0,30.38,South,176,1.0,7.0,79,0.00,,,0.00,,2013-03-06 19:21:00,
2013-03-06 13:32:00,30.0,24.0,30.37,SSE,160,0.0,1.0,78,0.00,,,0.00,,2013-03-06 19:32:00,
2013-03-06 13:43:00,30.0,24.0,30.37,SSE,160,0.0,1.0,78,0.00,,,0.00,,2013-03-06 19:43:00,
2013-03-06 13:53:00,29.0,24.0,30.36,WNW,288,0.0,0.0,80,0.00,,,0.00,,2013-03-06 19:53:00,
2013-03-06 14:01:00,29.0,24.0,30.35,SSW,206,2.0,5.0,80,0.00,,,0.00,,2013-03-06 20:01:00,
2013-03-06 14:11:00,29.0,24.0,30.35,SSW,206,2.0,5.0,80,0.00,,,0.00,,2013-03-06 20:11:00,
2013-03-06 14:22:00,29.0,24.0,30.34,SSW,202,1.0,1.0,80,0.00,,,0.00,,2013-03-06 20:22:00,
2013-03-06 14:32:00,28.0,22.0,30.33,ESE,102,6.0,6.0,79,0.00,,,0.00,,2013-03-06 20:32:00,
2013-03-06 14:42:00,28.0,22.0,30.33,ESE,102,6.0,6.0,79,0.00,,,0.00,,2013-03-06 20:42:00,
2013-03-06 14:53:00,29.0,24.0,30.32,ESE,112,2.0,5.0,81,0.00,,,0.00,,2013-03-06 20:53:00,
2013-03-06 15:02:00,30.0,25.0,30.32,SE,140,3.0,6.0,80,0.00,,,0.00,,2013-03-06 21:02:00,
2013-03-06 15:11:00,30.0,25.0,30.32,SE,140,3.0,6.0,80,0.00,,,0.00,,2013-03-06 21:11:00,
2013-03-06 15:22:00,30.0,25.0,30.32,ESE,110,5.0,6.0,80,0.00,,,0.00,,2013-03-06 21:22:00,
2013-03-06 15:32:00,30.0,25.0,30.31,ESE,102,3.0,7.0,82,0.00,,,0.00,,2013-03-06 21:32:00,
2013-03-06 15:42:00,30.0,25.0,30.31,ESE,102,3.0,7.0,82,0.00,,,0.00,,2013-03-06 21:42:00,
2013-03-06 15:52:00,30.0,25.0,30.30,ESE,113,5.0,7.0,80,0.00,,,0.00,,2013-03-06 21:52:00,
2013-03-06 16:01:00,30.0,25.0,30.30,ESE,113,7.0,9.0,81,0.00,,,0.00,,2013-03-06 22:01:00,
2013-03-06 16:11:00,30.0,25.0,30.30,ESE,113,7.0,9.0,81,0.00,,,0.00,,2013-03-06 22:11:00,
2013-03-06 16:21:00,31.0,26.0,30.29,SE,146,8.0,10.0,80,0.00,,,0.00,,2013-03-06 22:21:00,
2013-03-06 16:32:00,31.0,26.0,30.29,SE,131,3.0,5.0,81,0.00,,,0.00,,2013-03-06 22:32:00,
2013-03-06 16:41:00,31.0,26.0,30.29,SE,131,3.0,5.0,81,0.00,,,0.00,,2013-03-06 22:41:00,
2013-03-06 16:52:00,31.0,26.0,30.29,SE,138,6.0,9.0,81,0.00,,,0.00,,2013-03-06 22:52:00,
2013-03-06 17:01:00,32.0,26.0,30.28,SE,135,5.0,7.0,79,0.00,,,0.00,,2013-03-06 23:01:00,
2013-03-06 17:11:00,32.0,26.0,30.28,SE,135,5.0,7.0,79,0.00,,,0.00,,2013-03-06 23:11:00,
2013-03-06 17:21:00,32.0,27.0,30.27,ESE,116,6.0,7.0,80,0.00,,,0.00,,2013-03-06 23:21:00,
2013-03-06 17:32:00,32.0,27.0,30.26,ESE,118,7.0,8.0,80,0.00,,,0.00,,2013-03-06 23:32:00,
2013-03-06 17:42:00,32.0,27.0,30.26,SE,126,6.0,6.0,81,0.00,,,0.00,,2013-03-06 23:42:00,
2013-03-06 17:52:00,32.0,27.0,30.26,SE,126,6.0,6.0,81,0.00,,,0.00,,2013-03-06 23:52:00,
2013-03-06 18:01:00,32.0,27.0,30.25,ESE,122,6.0,9.0,81,0.00,,,0.00,,2013-03-07 00:01:00,
2013-03-06 18:11:00,32.0,27.0,30.25,ESE,122,6.0,9.0,81,0.00,,,0.00,,2013-03-07 00:11:00,
2013-03-06 18:21:00,32.0,27.0,30.25,SE,130,5.0,7.0,83,0.00,,,0.00,,2013-03-07 00:21:00,
2013-03-06 18:32:00,31.0,27.0,30.25,ESE,115,6.0,9.0,84,0.00,,,0.00,,2013-03-07 00:32:00,
2013-03-06 18:41:00,31.0,27.0,30.25,ESE,115,6.0,9.0,84,0.00,,,0.00,,2013-03-07 00:41:00,
2013-03-06 18:52:00,31.0,27.0,30.24,ESE,115,5.0,8.0,86,0.00,,,0.00,,2013-03-07 00:52:00,
2013-03-06 19:01:00,30.0,27.0,30.24,ESE,107,5.0,8.0,88,0.00,,,0.00,,2013-03-07 01:01:00,
2013-03-06 19:11:00,30.0,27.0,30.24,ESE,107,5.0,8.0,88,0.00,,,0.00,,2013-03-07 01:11:00,
2013-03-06 19:21:00,30.0,27.0,30.24,ESE,119,6.0,9.0,89,0.00,,,0.00,,2013-03-07 01:21:00,
2013-03-06 19:31:00,29.0,27.0,30.24,SE,126,8.0,8.0,91,0.00,,,0.00,,2013-03-07 01:31:00,
2013-03-06 19:41:00,29.0,27.0,30.24,SE,126,8.0,8.0,91,0.00,,,0.00,,2013-03-07 01:41:00,
2013-03-06 19:52:00,29.0,27.0,30.24,ESE,116,7.0,9.0,92,0.00,,,0.00,,2013-03-07 01:52:00,
2013-03-06 20:01:00,29.0,27.0,30.24,SE,125,7.0,8.0,93,0.00,,,0.00,,2013-03-07 02:01:00,
2013-03-06 20:11:00,29.0,27.0,30.24,SE,125,7.0,8.0,93,0.00,,,0.00,,2013-03-07 02:11:00,
2013-03-06 20:21:00,28.0,27.0,30.24,ESE,116,7.0,12.0,94,0.00,,,0.00,,2013-03-07 02:21:00,
2013-03-06 20:31:00,28.0,27.0,30.24,ESE,121,8.0,10.0,95,0.00,,,0.00,,2013-03-07 02:31:00,
2013-03-06 20:41:00,28.0,27.0,30.24,ESE,121,8.0,10.0,95,0.00,,,0.00,,2013-03-07 02:41:00,
2013-03-06 20:52:00,28.0,27.0,30.24,ESE,121,8.0,10.0,95,0.00,,,0.00,,2013-03-07 02:52:00,
2013-03-06 21:01:00,27.0,26.0,30.24,SE,135,7.0,10.0,96,0.00,,,0.00,,2013-03-07 03:01:00,
2013-03-06 21:11:00,26.0,25.0,30.24,SSE,150,6.0,8.0,97,0.00,,,0.00,,2013-03-07 03:11:00,
2013-03-06 21:21:00,26.0,25.0,30.24,SSE,150,6.0,8.0,97,0.00,,,0.00,,2013-03-07 03:21:00,
2013-03-06 21:32:00,26.0,25.0,30.24,SE,129,7.0,12.0,97,0.00,,,0.00,,2013-03-07 03:32:00,
2013-03-06 21:42:00,26.0,25.0,30.24,SE,129,7.0,12.0,97,0.00,,,0.00,,2013-03-07 03:42:00,
2013-03-06 21:52:00,25.0,25.0,30.24,SE,142,7.0,9.0,98,0.00,,,0.00,,2013-03-07 03:52:00,
2013-03-06 22:01:00,25.0,25.0,30.24,SE,135,7.0,10.0,98,0.00,,,0.00,,2013-03-07 04:01:00,
2013-03-06 22:11:00,25.0,25.0,30.24,SE,135,7.0,10.0,98,0.00,,,0.00,,2013-03-07 04:11:00,
2013-03-06 22:21:00,25.0,25.0,30.25,SE,144,7.0,8.0,98,0.00,,,0.00,,2013-03-07 04:21:00,
2013-03-06 22:31:00,25.0,25.0,30.24,SSE,147,7.0,12.0,98,0.00,,,0.00,,2013-03-07 04:31:00,
2013-03-06 22:42:00,25.0,25.0,30.24,SSE,147,7.0,12.0,98,0.00,,,0.00,,2013-03-07 04:42:00,
2013-03-06 22:52:00,25.0,25.0,30.25,ESE,122,7.0,8.0,99,0.00,,,0.00,,2013-03-07 04:52:00,
2013-03-06 23:01:00,25.0,25.0,30.25,SE,142,5.0,7.0,99,0.00,,,0.00,,2013-03-07 05:01:00,
2013-03-06 23:12:00,25.0,25.0,30.25,SE,142,5.0,7.0,99,0.00,,,0.00,,2013-03-07 05:12:00,
2013-03-06 23:22:00,24.0,24.0,30.25,SE,128,6.0,9.0,99,0.00,,,0.00,,2013-03-07 05:22:00,
2013-03-06 23:32:00,24.0,24.0,30.24,SE,138,6.0,14.0,99,0.00,,,0.00,,2013-03-07 05:32:00,
2013-03-06 23:42:00,24.0,24.0,30.24,SE,138,6.0,14.0,99,0.00,,,0.00,,2013-03-07 05:42:00,
2013-03-06 23:52:00,24.0,24.0,30.25,SE,128,7.0,9.0,99,0.00,,,0.00,,2013-03-07 05:52:00,